| time (UTC) | temp F | wind direction | speed knots | gust knots | rain 1hr in | rain 24hr in | rain mn in | humidity % | barometer mb |
| 20260507003005 | 57 | 320 | 2.6 | 0.0 | 0.00 | 0.00 | 0.00 | 100 | 1011.0 |
| 20260507001503 | 57 | 60 | 1.7 | 0.0 | 0.00 | 0.00 | 0.00 | 100 | 1011.0 |
| 20260507000004 | 57 | 60 | 1.7 | 0.0 | 0.00 | 0.00 | 0.00 | 100 | 1011.0 |
| 20260506230004 | 57 | 0 | 1.7 | 0.0 | 0.00 | 0.00 | 0.00 | 100 | 1011.0 |
| 20260506224503 | 59 | 20 | 4.3 | 0.0 | 0.00 | 0.00 | 0.00 | 93 | 1010.0 |
| 20260506214504 | 61 | 0 | 1.7 | 0.0 | 0.00 | 0.00 | 0.00 | 93 | 1010.0 |
| 20260506211504 | 61 | 0 | 1.7 | 0.0 | 0.00 | 0.00 | 0.00 | 87 | 1010.0 |
| 20260506210005 | 61 | 0 | 1.7 | 0.0 | 0.00 | 0.00 | 0.00 | 87 | 1010.0 |
| 20260506204503 | 63 | 0 | 0.9 | 0.0 | 0.00 | 0.00 | 0.00 | 82 | 1010.0 |
| 20260506203004 | 63 | 0 | 0.9 | 0.0 | 0.00 | 0.00 | 0.00 | 82 | 1010.0 |
| 20260506201505 | 63 | 190 | 4.3 | 0.0 | 0.00 | 0.00 | 0.00 | 82 | 1010.0 |
| 20260506200005 | 63 | 190 | 4.3 | 0.0 | 0.00 | 0.00 | 0.00 | 82 | 1010.0 |
| 20260506194503 | 63 | 0 | 2.6 | 0.0 | 0.00 | 0.00 | 0.00 | 82 | 1009.0 |
| 20260506191504 | 63 | 190 | 2.6 | 0.0 | 0.00 | 0.00 | 0.00 | 88 | 1009.0 |
| 20260506184504 | 63 | 210 | 5.2 | 0.0 | 0.00 | 0.00 | 0.00 | 88 | 1009.0 |
| 20260506183005 | 63 | 210 | 5.2 | 0.0 | 0.00 | 0.00 | 0.00 | 88 | 1009.0 |
| 20260506181503 | 63 | 140 | 5.2 | 0.0 | 0.00 | 0.00 | 0.00 | 93 | 1009.0 |
| 20260506174504 | 63 | 120 | 2.6 | 0.0 | 0.00 | 0.00 | 0.00 | 93 | 1009.0 |
| 20260506173004 | 63 | 120 | 2.6 | 0.0 | 0.00 | 0.00 | 0.00 | 93 | 1009.0 |
| 20260506171503 | 63 | 170 | 4.3 | 0.0 | 0.00 | 0.00 | 0.00 | 88 | 1009.0 |
| 20260506164503 | 63 | 160 | 5.2 | 0.0 | 0.00 | 0.00 | 0.00 | 88 | 1009.0 |
| 20260506143005 | 64 | 120 | 7.8 | 0.0 | 0.00 | 0.00 | 0.00 | 88 | 1010.0 |
| 20260506141504 | 64 | 120 | 7.8 | 0.0 | 0.00 | 0.00 | 0.00 | 88 | 1010.0 |
| 20260506140005 | 64 | 120 | 7.8 | 0.0 | 0.00 | 0.00 | 0.00 | 88 | 1010.0 |
| 20260506131504 | 63 | 150 | 7.0 | 0.0 | 0.00 | 0.00 | 0.00 | 88 | 1010.0 |
| 20260506130004 | 63 | 150 | 7.0 | 0.0 | 0.00 | 0.00 | 0.00 | 88 | 1010.0 |
| 20260506124503 | 63 | 150 | 4.3 | 0.0 | 0.00 | 0.00 | 0.00 | 93 | 1011.0 |
| 20260506123005 | 63 | 140 | 4.3 | 0.0 | 0.00 | 0.00 | 0.00 | 93 | 1011.0 |
| 20260506114503 | 61 | 150 | 5.2 | 0.0 | 0.00 | 0.00 | 0.00 | 93 | 1011.0 |
| 20260506111504 | 61 | 150 | 4.3 | 0.0 | 0.00 | 0.00 | 0.00 | 93 | 1011.0 |
| 20260506110005 | 61 | 150 | 4.3 | 0.0 | 0.00 | 0.00 | 0.00 | 93 | 1011.0 |
| 20260506104504 | 63 | 160 | 2.6 | 0.0 | 0.00 | 0.00 | 0.00 | 88 | 1011.0 |
| 20260506101504 | 63 | 170 | 2.6 | 0.0 | 0.00 | 0.00 | 0.00 | 82 | 1011.0 |
| 20260506100005 | 63 | 170 | 2.6 | 0.0 | 0.00 | 0.00 | 0.00 | 82 | 1011.0 |
| 20260506091504 | 63 | 190 | 5.2 | 0.0 | 0.00 | 0.00 | 0.00 | 88 | 1011.0 |
| 20260506090004 | 63 | 190 | 5.2 | 0.0 | 0.00 | 0.00 | 0.00 | 88 | 1011.0 |
| 20260506084504 | 63 | 160 | 4.3 | 0.0 | 0.00 | 0.00 | 0.00 | 88 | 1011.0 |
| 20260506083004 | 63 | 160 | 4.3 | 0.0 | 0.00 | 0.00 | 0.00 | 88 | 1011.0 |
| 20260506071504 | 59 | 60 | 6.1 | 0.0 | 0.00 | 0.00 | 0.00 | 100 | 1010.0 |
| 20260506043004 | 57 | 40 | 5.2 | 0.0 | 0.00 | 0.00 | 0.00 | 93 | 1011.0 |
| 20260506041505 | 57 | 20 | 7.0 | 0.0 | 0.00 | 0.00 | 0.00 | 93 | 1011.0 |
| 20260506040004 | 57 | 20 | 7.0 | 0.0 | 0.00 | 0.00 | 0.00 | 93 | 1011.0 |
| 20260506034504 | 57 | 30 | 7.0 | 0.0 | 0.00 | 0.00 | 0.00 | 93 | 1011.0 |
| 20260506031504 | 57 | 30 | 6.1 | 0.0 | 0.00 | 0.00 | 0.00 | 93 | 1011.0 |
| 20260506023004 | 57 | 20 | 7.0 | 0.0 | 0.00 | 0.00 | 0.00 | 93 | 1011.0 |
| 20260506021504 | 57 | 10 | 6.1 | 0.0 | 0.00 | 0.00 | 0.00 | 93 | 1012.0 |
| 20260506020005 | 57 | 10 | 6.1 | 0.0 | 0.00 | 0.00 | 0.00 | 93 | 1012.0 |
| 20260506014504 | 57 | 20 | 6.1 | 0.0 | 0.00 | 0.00 | 0.00 | 93 | 1012.0 |
| 20260506013004 | 57 | 20 | 6.1 | 0.0 | 0.00 | 0.00 | 0.00 | 93 | 1012.0 |
| 20260506011504 | 57 | 20 | 6.1 | 0.0 | 0.00 | 0.00 | 0.00 | 93 | 1012.0 |
| 20260506010004 | 57 | 20 | 6.1 | 0.0 | 0.00 | 0.00 | 0.00 | 93 | 1012.0 |